Temperature
20 21 21 22 22 20 20 19 19 20 19 19 18 18 18 18 19 19 19 20 20 20 20 20 20 20 20 20 20 20 19 19 19 19 18 18 18 18 18 17 17 17 17 17
21 21 21 21 21 21 21 20 19 19 19 18 17 18 18 18 18 18 18 19 19 20 20 20 20 20 20 20 20 19 19 19 18 18 18 18 18 18 18 17 17 17 17 17
19 20 21 20 20 20 19 18 19 19 18 17 17 17 17 17 18 18 18 18 19 19 19 20 20 20 20 19 19 19 19 18 18 18 18 18 17 17 17 17 17 17 17 17
16 20 20 19 19 19 18 17 17 17 17 17 17 17 17 18 18 18 18 18 19 19 19 19 19 19 19 19 19 19 19 18 18 18 18 17 17 17 17 17 17 17 17 16
15 17 18 19 18 18 18 17 17 16 16 16 17 17 17 18 18 18 19 19 19 19 19 19 19 19 19 19 18 18 18 18 18 18 17 17 17 17 17 17 17 16 16 16
15 17 18 18 18 18 17 17 17 16 16 16 16 16 16 17 17 18 18 18 19 19 19 19 19 19 19 19 18 18 18 18 18 17 17 17 17 17 17 16 16 16 16 16
15 16 16 16 16 18 18 17 16 16 16 16 15 16 17 17 17 17 17 18 18 18 18 18 18 18 18 18 18 18 17 17 17 17 17 17 17 16 16 16 16 16 15 15
13 15 16 16 16 16 15 15 16 16 16 16 16 16 16 16 17 17 17 17 17 17 17 17 17 17 17 17 17 17 17 17 17 16 16 16 16 16 16 16 15 15 15 15
13 14 14 14 15 15 16 15 15 16 16 16 16 16 16 16 16 16 17 17 17 17 17 16 16 16 16 17 16 16 16 16 16 16 15 15 15 15 15 15 15 15 15 15
12 13 13 14 15 16 16 16 16 16 16 16 16 15 15 16 16 16 16 16 16 16 16 16 16 16 16 16 16 16 15 15 15 15 15 15 15 15 14 14 14 14 14 14
12 12 13 15 15 15 15 15 15 15 15 15 15 15 15 15 15 15 15 15 15 15 15 15 15 15 15 15 15 15 15 15 15 15 15 14 14 14 14 14 14 14 14 14
12 13 12 14 15 15 15 15 15 15 15 15 15 15 14 15 15 15 15 15 15 15 15 15 14 14 14 14 14 14 14 14 14 14 14 14 14 13 13 13 13 13 13 13
14 14 14 14 14 14 14 14 14 14 14 14 14 14 14 14 14 14 14 14 14 14 14 14 14 14 14 14 14 14 14 14 13 13 13 13 13 13 13 12 12 12 12 12
14 14 14 14 14 14 14 14 14 13 13 13 13 14 13 13 13 13 13 13 13 13 13 13 13 13 13 13 13 13 13 13 13 13 13 13 13 13 12 12 12 12 12 12
14 14 14 14 14 14 14 14 13 13 13 13 13 13 13 13 13 13 13 13 13 13 12 13 13 13 13 13 13 13 13 13 13 13 12 12 12 12 12 11 11 11 11 11
14 14 14 13 13 13 13 13 13 12 12 12 12 12 12 12 12 12 12 12 12 12 12 12 12 12 12 12 12 12 12 12 12 12 12 12 12 11 11 11 11 11 11 11
13 13 13 13 13 13 13 13 12 12 12 12 12 12 11 12 11 12 12 12 12 12 12 12 12 12 12 12 12 12 12 12 12 12 12 11 11 11 11 11 11 11 11 10
13 13 13 13 13 12 12 12 12 12 12 11 11 11 11 11 11 11 11 11 11 11 11 11 11 11 11 11 11 12 12 12 12 11 11 11 11 11 11 10 10 10 10 10
13 13 13 13 12 12 12 12 11 11 11 11 11 10 10 10 10 10 11 11 11 10 10 10 10 11 11 11 11 11 11 11 11 11 11 11 10 10 10 10 10 10 10 10
12 12 12 12 12 12 11 11 11 11 11 10 10 10 10 10 10 10 10 10 10 10 10 10 10 10 10 10 11 11 11 11 11 11 11 11 10 10 10 10 10 10 9 9
12 12 12 12 12 11 11 11 11 10 10 10 10 10 10 10 10 10 10 10 10 10 10 10 10 10 10 10 10 10 10 10 10 10 10 10 10 10 10 9 9 9 9 9
12 11 11 11 11 11 11 11 11 10 10 10 10 10 10 10 10 10 10 10 10 10 10 10 10 10 10 10 10 10 10 10 10 10 10 10 10 10 9 9 9 9 9 9
11 11 11 11 11 11 11 11 10 10 10 10 10 10 10 10 10 10 9 10 10 10 10 10 10 10 10 10 10 10 10 10 10 10 10 10 10 9 9 9 9 9 9 9
11 11 11 11 11 11 11 11 10 10 10 10 10 10 10 10 10 10 10 10 10 10 10 10 10 10 10 9 10 10 10 10 10 10 10 9 9 9 9 9 9 9 9 9
11 11 11 11 11 11 11 10 10 10 10 10 10 10 10 10 10 10 10 9 9 9 10 10 9 9 9 9 9 9 9 9 9 9 9 9 9 9 9 9 9 9 8 8
11 11 11 11 11 11 10 10 10 10 10 10 10 10 10 10 10 10 9 9 9 9 9 9 9 9 9 9 9 9 9 9 9 9 9 9 9 9 9 8 8 8 8 8
11 11 11 11 11 11 10 10 10 10 10 10 10 10 10 10 10 9 9 9 9 9 9 9 9 9 9 9 9 9 9 9 9 9 9 9 9 8 8 8 8 8 8 8
Wind_Speed
3 3 3 3 2 5 5 8 9 8 8 6 5 4 4 4 5 5 4 4 4 4 3 4 3 3 3 3 3 4 5 5 5 5 4 4 4 4 5 5 5 5 5 5
2 1 2 1 1 3 3 3 4 4 4 3 1 2 3 4 5 5 4 3 4 3 3 3 3 3 3 2 2 3 4 4 4 4 3 3 4 4 4 4 4 4 5 5
1 2 3 1 3 2 1 0 4 5 6 3 3 3 4 3 4 4 4 3 3 3 3 3 3 3 3 3 3 3 3 3 3 3 3 4 4 4 3 4 4 4 5 5
3 3 3 4 2 2 3 2 1 2 3 3 3 2 2 2 4 3 2 2 3 3 2 2 2 2 2 3 3 2 2 3 3 3 4 4 4 5 4 4 4 4 5 5
4 3 1 2 1 1 2 2 2 1 2 3 4 4 3 1 2 3 3 3 3 3 2 2 2 2 2 2 1 1 2 2 3 3 4 5 5 6 4 4 4 4 4 5
4 4 5 4 4 3 3 1 3 2 3 3 3 2 2 1 1 1 1 1 2 2 2 2 2 3 3 2 1 3 3 3 3 3 4 4 5 4 3 4 4 4 4 4
4 3 4 4 7 2 4 4 1 1 2 3 2 3 2 1 1 1 1 1 2 2 2 1 1 2 2 2 4 4 3 2 3 3 4 4 4 3 3 4 4 4 3 3
4 3 4 4 3 2 2 1 1 1 2 3 2 2 2 2 1 1 1 2 2 2 1 1 1 1 2 4 4 3 2 2 3 3 3 3 3 3 3 3 3 4 3 3
4 4 3 2 0 0 2 2 1 2 1 2 2 1 1 1 1 1 1 1 1 2 1 2 0 2 3 4 2 2 2 3 3 2 2 2 3 3 3 3 3 4 4 4
2 1 2 2 2 3 2 2 1 2 1 2 2 1 1 1 1 1 1 1 1 2 2 2 2 2 3 3 2 2 3 3 2 2 2 2 2 3 3 4 4 4 4 4
1 1 2 3 2 2 3 3 3 2 1 2 2 0 0 0 1 1 1 1 1 0 1 3 3 2 3 2 1 2 2 2 2 3 3 2 3 3 3 4 5 5 5 5
5 6 3 3 2 1 2 2 2 2 2 1 1 1 0 1 1 1 1 1 1 1 2 3 3 3 3 2 1 1 2 2 2 2 2 2 2 2 0 1 2 4 5 5
4 3 3 2 1 1 1 1 2 1 0 1 2 1 1 1 1 1 1 1 1 2 3 3 3 3 4 2 1 1 2 2 2 2 2 2 2 2 2 1 2 1 1 3
3 3 1 2 2 1 0 1 2 3 2 1 2 2 1 1 1 2 2 3 2 2 3 3 3 4 4 2 1 1 2 2 2 2 2 2 2 2 2 2 1 1 1 1
2 3 4 2 1 0 1 2 3 3 3 3 2 1 1 2 3 3 3 2 2 2 3 3 3 4 4 2 2 2 2 2 1 1 1 1 1 2 2 2 2 1 1 1
1 2 3 2 1 0 1 1 1 1 2 3 3 3 3 3 3 3 3 2 2 3 4 3 4 4 3 2 2 1 1 2 1 1 0 0 1 1 1 2 2 2 2 1
3 2 2 1 1 1 1 2 2 2 2 2 3 3 2 2 2 3 3 3 3 4 3 3 3 4 3 2 1 1 1 1 0 0 0 0 1 1 1 1 1 1 1 1
4 5 5 6 4 3 2 1 1 2 2 3 2 1 2 2 3 3 3 2 2 2 3 3 3 3 3 3 2 1 1 1 1 1 1 1 1 1 2 2 2 1 1 1
2 3 3 4 4 3 2 2 2 2 2 1 1 1 2 2 2 2 2 2 2 2 4 3 3 3 3 3 2 1 1 1 1 1 1 1 1 1 2 2 2 2 2 2
2 3 3 3 2 2 2 2 2 2 1 1 0 1 2 3 3 2 1 2 3 3 3 2 2 3 3 3 3 1 1 0 1 1 1 2 2 2 1 2 2 2 2 2
2 2 2 2 2 1 2 2 2 2 2 1 1 1 2 3 2 1 1 3 4 3 2 2 2 2 2 2 2 0 0 0 0 1 2 2 1 1 1 1 1 2 2 1
2 2 2 2 2 1 2 2 2 2 2 2 1 1 2 3 3 2 2 3 4 3 2 2 2 2 1 1 1 1 1 1 1 1 1 1 1 1 1 2 2 2 2 2
3 2 3 3 2 2 2 2 2 2 2 3 3 3 3 3 3 2 3 4 3 3 2 2 2 2 1 1 1 1 1 1 0 1 1 1 2 2 2 2 2 2 2 2
1 2 2 1 1 1 1 2 2 2 3 3 3 3 3 2 3 3 3 4 3 2 1 2 2 2 1 1 1 1 1 0 0 0 1 1 1 1 1 2 2 2 2 2
0 1 1 1 1 1 1 1 1 1 1 1 2 3 3 2 2 3 2 2 2 1 1 1 1 1 0 1 1 0 0 0 0 1 1 1 1 1 1 1 1 1 1 2
1 1 1 1 2 1 1 1 1 1 0 1 2 2 2 1 1 1 1 1 1 0 0 1 1 1 1 1 0 0 0 0 0 0 1 1 1 1 1 1 1 1 1 1
1 1 1 1 1 0 1 1 1 1 1 1 1 2 2 1 1 1 1 1 1 1 1 1 1 1 0 0 0 0 0 0 0 0 1 1 1 1 1 1 1 0 1 1
Wind_Direction
189 197 165 168 193 181 184 181 181 211 205 232 227 199 175 157 138 123 121 122 125 130 126 122 124 137 153 162 163 167 169 184 200 201 200 204 212 214 217 217 221 220 217 218
59 46 145 107 320 200 198 173 184 167 226 241 153 120 130 147 150 143 145 146 132 121 118 134 149 151 148 157 168 165 172 189 196 195 193 197 216 226 224 224 226 220 219 219
189 316 64 358 302 226 157 152 173 201 220 159 131 149 171 164 149 160 165 152 143 150 158 167 172 161 165 175 163 164 182 193 194 196 204 208 214 215 224 233 231 228 226 221
118 91 177 237 327 91 98 31 22 162 164 169 175 165 148 150 156 171 170 158 168 174 181 178 162 157 154 140 150 172 192 208 211 208 217 219 217 224 229 235 236 235 230 225
117 137 237 284 8 54 122 359 347 147 137 122 104 69 15 30 159 182 179 181 192 188 190 177 167 154 131 125 134 184 224 237 239 228 226 221 222 230 235 228 232 235 227 219
119 140 205 240 300 300 123 315 309 148 149 144 109 122 251 335 63 77 70 128 147 147 142 147 179 159 146 163 197 238 242 245 248 245 242 237 234 237 239 231 234 223 225 222
133 164 246 283 303 344 157 227 291 130 145 137 154 196 209 108 84 110 87 62 100 114 135 176 170 151 171 202 231 245 251 258 256 250 247 242 238 237 236 231 229 225 220 221
135 156 234 320 11 118 206 286 74 97 115 110 107 88 100 112 114 98 77 62 94 101 22 339 115 156 212 239 249 248 241 257 268 264 257 252 234 241 233 222 221 219 212 223
170 195 254 302 110 127 136 114 103 123 118 117 106 100 102 98 64 26 28 26 56 97 56 344 287 191 231 258 260 239 237 248 256 262 265 253 231 234 240 227 226 228 219 226
77 330 325 354 43 46 58 104 146 148 138 118 113 116 41 11 11 16 359 347 11 49 21 319 312 294 261 265 245 231 236 240 236 234 245 242 235 225 226 232 234 230 224 225
80 292 4 3 31 40 39 68 74 69 85 116 110 111 198 162 318 304 354 351 9 74 275 285 297 312 306 287 221 227 238 237 239 234 226 234 238 232 228 232 228 228 227 212
209 217 189 234 266 30 58 54 48 51 24 31 117 181 230 273 278 287 309 339 340 331 309 295 300 312 310 302 246 203 232 246 246 241 228 220 228 256 276 234 251 226 218 205
206 205 198 220 278 346 64 42 22 32 29 333 327 263 237 260 282 275 285 293 292 299 291 291 303 308 306 302 266 217 230 243 245 241 230 222 218 218 252 342 21 356 224 193
176 146 148 235 246 255 117 39 47 32 7 344 324 330 336 316 296 265 271 275 276 278 281 284 288 292 297 301 273 246 240 243 241 243 240 236 224 217 217 215 230 331 6 191
191 178 188 201 182 44 42 59 52 16 356 344 329 307 287 278 277 277 277 274 278 282 284 286 291 301 314 316 295 273 268 257 240 241 238 223 216 209 205 201 192 170 83 44
165 104 128 130 139 91 40 43 55 319 314 309 305 287 269 258 268 279 283 279 278 283 290 296 296 302 310 313 309 293 274 267 255 242 232 202 169 173 184 192 191 172 173 172
150 175 177 183 213 233 254 256 239 254 279 294 293 289 300 308 313 304 304 307 271 269 281 288 298 312 315 309 291 283 277 275 272 197 170 141 157 175 178 176 182 179 181 167
192 198 195 187 190 208 248 267 269 275 278 284 297 313 322 315 306 306 310 320 328 325 319 310 315 325 322 320 316 308 264 246 214 194 172 156 166 165 156 153 154 157 126 116
164 173 182 187 193 191 207 237 250 265 279 298 311 319 320 320 313 308 319 335 324 309 306 312 320 326 318 318 323 309 259 213 182 178 166 156 150 138 136 139 145 144 137 128
149 166 175 190 202 194 209 243 255 272 283 268 280 344 338 328 329 326 319 297 282 273 282 304 323 322 314 314 322 299 276 226 190 184 156 140 140 136 135 140 144 139 133 134
183 196 201 208 225 216 209 214 228 262 280 259 223 263 289 302 313 317 316 306 307 304 298 294 302 313 325 330 338 348 296 105 129 151 142 135 137 139 139 143 149 157 156 158
216 212 221 220 213 237 251 238 234 244 259 279 269 275 293 301 310 319 292 268 283 299 306 295 291 296 322 359 41 60 71 87 93 120 148 166 171 177 185 178 175 176 176 182
231 224 221 217 208 228 263 266 247 238 253 259 255 254 257 267 264 261 289 287 284 287 288 287 295 313 353 58 76 86 85 93 115 172 195 201 199 195 195 194 188 185 183 184
238 229 224 211 165 175 252 289 281 259 262 269 262 251 246 262 283 264 250 278 291 292 295 302 315 330 6 78 79 68 56 70 107 165 194 198 195 193 200 201 193 190 183 177
179 168 162 158 177 212 229 270 304 301 316 316 312 304 278 238 235 269 279 276 284 304 319 333 331 320 15 78 79 63 27 357 169 168 172 191 210 217 223 211 196 193 186 181
135 165 203 206 193 194 189 186 218 292 329 351 334 327 336 334 277 275 282 277 291 334 340 319 335 2 32 62 79 97 40 16 71 151 168 182 203 202 178 147 163 185 184 181
78 74 65 36 18 178 180 174 184 226 215 173 309 324 345 3 8 13 23 33 37 31 19 9 31 55 76 97 93 46 293 251 223 209 194 178 166 162 175 184 192 180 180 172
Height
1473 1470 1471 1473 1474 1477 1480 1485 1492 1487 1487 1480 1478 1476 1476 1477 1478 1480 1481 1482 1484 1486 1488 1491 1494 1496 1498 1500 1502 1504 1506 1508 1509 1510 1512 1513 1514 1515 1514 1514 1515 1515 1515 1516
1474 1471 1471 1474 1473 1474 1475 1478 1480 1481 1482 1475 1476 1476 1477 1477 1478 1479 1481 1482 1484 1486 1488 1490 1493 1495 1497 1499 1501 1502 1503 1505 1506 1508 1508 1509 1510 1511 1511 1511 1511 1511 1512 1512
1483 1475 1473 1484 1478 1476 1476 1476 1477 1481 1478 1475 1476 1476 1476 1477 1478 1479 1481 1482 1484 1486 1488 1490 1491 1493 1495 1497 1499 1501 1502 1503 1503 1504 1505 1506 1506 1507 1507 1507 1507 1507 1508 1508
1487 1482 1493 1485 1474 1473 1476 1477 1475 1474 1474 1474 1475 1475 1476 1477 1478 1480 1481 1483 1484 1486 1488 1489 1491 1492 1494 1495 1497 1498 1499 1500 1501 1501 1502 1502 1502 1503 1503 1503 1504 1504 1504 1505
1492 1493 1489 1479 1474 1475 1477 1479 1476 1475 1475 1475 1476 1477 1478 1478 1479 1480 1481 1483 1484 1485 1487 1488 1489 1490 1492 1493 1494 1495 1496 1497 1497 1498 1498 1498 1498 1498 1499 1499 1499 1499 1500 1500
1491 1493 1495 1483 1473 1471 1475 1482 1476 1475 1475 1476 1476 1481 1481 1479 1480 1480 1481 1482 1483 1484 1486 1486 1487 1488 1489 1490 1491 1492 1493 1493 1494 1495 1495 1494 1494 1494 1495 1495 1495 1495 1496 1496
1489 1491 1487 1477 1472 1471 1483 1482 1476 1475 1475 1476 1476 1478 1479 1479 1480 1480 1480 1481 1481 1482 1484 1485 1486 1486 1487 1487 1488 1489 1490 1490 1490 1491 1491 1491 1490 1490 1491 1491 1491 1491 1492 1492
1489 1491 1490 1475 1473 1476 1479 1476 1475 1475 1476 1476 1476 1477 1477 1478 1478 1478 1479 1479 1480 1481 1482 1483 1484 1485 1485 1485 1486 1487 1486 1486 1486 1487 1487 1487 1487 1487 1487 1487 1487 1487 1487 1488
1484 1486 1479 1475 1475 1475 1475 1475 1476 1476 1476 1477 1477 1477 1477 1477 1477 1477 1478 1478 1479 1479 1480 1481 1481 1482 1482 1482 1483 1483 1483 1482 1482 1483 1483 1483 1483 1483 1483 1483 1483 1483 1483 1483
1481 1479 1477 1476 1475 1475 1475 1476 1476 1477 1477 1477 1477 1477 1477 1477 1477 1477 1477 1477 1478 1478 1478 1479 1479 1479 1479 1479 1479 1479 1478 1478 1478 1479 1479 1479 1479 1478 1478 1478 1479 1479 1479 1479
1481 1479 1477 1476 1476 1476 1476 1476 1477 1477 1477 1477 1477 1477 1477 1476 1477 1477 1477 1477 1477 1477 1477 1478 1478 1477 1477 1476 1475 1475 1475 1475 1474 1475 1474 1474 1474 1474 1473 1473 1474 1474 1474 1474
1478 1476 1476 1476 1476 1476 1476 1476 1476 1476 1476 1477 1477 1476 1476 1475 1475 1476 1476 1475 1476 1476 1476 1476 1475 1474 1474 1473 1472 1472 1471 1471 1470 1470 1470 1470 1470 1470 1469 1470 1470 1470 1471 1471
1471 1473 1474 1475 1476 1476 1476 1476 1477 1476 1476 1475 1475 1475 1475 1474 1474 1475 1474 1474 1474 1474 1474 1474 1473 1472 1472 1471 1470 1469 1468 1468 1467 1467 1466 1466 1465 1465 1465 1465 1466 1466 1467 1468
1471 1472 1473 1474 1475 1475 1475 1476 1476 1476 1475 1475 1474 1473 1473 1472 1472 1472 1472 1472 1472 1472 1472 1472 1470 1470 1469 1468 1467 1466 1465 1464 1464 1464 1463 1462 1461 1461 1462 1461 1462 1462 1463 1464
1470 1471 1472 1473 1474 1474 1474 1474 1474 1474 1474 1473 1473 1472 1471 1471 1470 1470 1469 1469 1469 1469 1469 1468 1467 1466 1466 1465 1464 1463 1462 1461 1461 1461 1460 1459 1459 1459 1459 1459 1459 1459 1460 1461
1469 1470 1471 1472 1472 1473 1473 1473 1473 1472 1472 1471 1471 1470 1469 1468 1468 1467 1467 1466 1466 1465 1465 1464 1464 1463 1463 1462 1461 1460 1459 1459 1459 1458 1458 1457 1457 1457 1457 1457 1457 1457 1457 1458
1467 1468 1469 1470 1470 1471 1471 1471 1471 1471 1470 1469 1469 1468 1467 1466 1465 1464 1463 1463 1462 1462 1462 1462 1461 1460 1459 1459 1458 1457 1456 1456 1456 1456 1455 1455 1455 1455 1455 1455 1455 1455 1455 1456
1466 1466 1467 1468 1469 1469 1469 1470 1469 1469 1468 1467 1467 1466 1465 1463 1462 1461 1460 1460 1460 1459 1458 1458 1458 1457 1457 1456 1455 1454 1454 1454 1454 1454 1453 1453 1453 1453 1453 1453 1454 1454 1454 1455
1464 1465 1466 1467 1467 1467 1467 1467 1467 1467 1466 1465 1465 1464 1463 1461 1460 1459 1458 1458 1457 1456 1456 1456 1456 1455 1454 1453 1453 1453 1453 1452 1452 1451 1451 1451 1452 1452 1452 1452 1452 1453 1453 1453
1462 1463 1464 1465 1465 1466 1465 1465 1465 1464 1464 1464 1463 1462 1461 1460 1459 1457 1457 1456 1455 1455 1455 1454 1453 1453 1452 1451 1451 1451 1451 1450 1450 1450 1450 1450 1450 1450 1450 1451 1451 1452 1452 1452
1461 1461 1462 1462 1463 1464 1464 1464 1463 1462 1462 1462 1461 1460 1459 1458 1458 1457 1455 1454 1453 1454 1453 1452 1452 1451 1451 1450 1450 1449 1449 1449 1449 1449 1449 1449 1449 1450 1450 1450 1451 1451 1451 1452
1459 1459 1460 1460 1461 1462 1462 1462 1461 1461 1460 1460 1460 1459 1458 1457 1456 1455 1454 1454 1453 1453 1452 1451 1451 1451 1450 1449 1449 1449 1449 1449 1448 1448 1449 1449 1449 1449 1449 1450 1450 1450 1451 1451
1457 1457 1458 1459 1459 1460 1460 1460 1460 1459 1459 1458 1458 1457 1457 1456 1455 1454 1453 1453 1452 1452 1451 1451 1451 1450 1449 1449 1449 1449 1449 1449 1449 1449 1449 1449 1449 1449 1449 1449 1449 1449 1449 1450
1456 1457 1457 1458 1458 1458 1458 1458 1458 1457 1457 1457 1456 1456 1455 1454 1453 1453 1452 1452 1451 1450 1450 1450 1450 1450 1449 1449 1449 1449 1449 1449 1449 1449 1449 1449 1449 1449 1448 1448 1448 1448 1448 1448
1456 1456 1457 1457 1457 1456 1457 1457 1456 1456 1455 1455 1455 1454 1453 1453 1452 1452 1451 1450 1450 1450 1450 1450 1449 1449 1449 1449 1449 1449 1449 1449 1449 1449 1448 1448 1448 1448 1447 1447 1447 1447 1447 1447
1456 1457 1457 1457 1456 1456 1456 1456 1456 1455 1455 1454 1454 1454 1453 1453 1452 1451 1451 1450 1450 1450 1450 1450 1449 1449 1449 1449 1449 1449 1449 1448 1448 1448 1447 1447 1447 1447 1446 1446 1446 1446 1445 1445
1457 1457 1457 1457 1457 1457 1456 1456 1456 1455 1455 1455 1454 1454 1453 1453 1452 1452 1451 1451 1450 1450 1450 1450 1449 1449 1449 1449 1449 1449 1448 1448 1447 1447 1446 1446 1446 1445 1445 1445 1445 1444 1444 1444